Probability
0 0 0 0 0 0 0 0 0 0 0 0 0 0 0 0 0 0 0 0 0 0 0 0 0 0 0 0 0 0 0 0 0 0 0 0 0 0 0 0 0 0 0 0
0 0 0 0 0 0 0 0 0 0 0 0 0 0 0 0 0 0 0 0 0 0 0 0 0 0 0 0 0 0 0 0 0 0 0 0 0 0 0 0 0 0 0 0
0 0 0 0 0 0 0 0 0 0 0 0 0 0 0 0 0 0 0 0 0 0 0 0 0 0 0 0 0 0 0 0 0 0 0 0 0 0 0 0 0 0 0 0
0 0 0 0 0 0 0 0 0 0 0 0 0 0 0 0 0 0 0 0 0 0 0 0 0 0 0 0 0 0 0 0 0 0 0 0 0 0 0 0 0 0 0 0
0 0 0 0 0 0 0 0 0 0 0 0 0 0 0 0 0 0 0 0 0 0 0 0 0 0 0 0 0 0 0 0 0 0 0 0 0 0 0 0 0 0 0 0
0 0 0 0 0 0 0 0 0 0 0 0 0 0 0 0 0 0 0 0 0 0 0 0 0 0 0 0 0 0 0 0 0 0 0 0 0 0 0 0 0 0 0 0
0 0 0 0 0 0 0 0 0 0 0 0 0 0 0 0 0 0 0 0 0 0 0 0 0 0 0 0 0 0 0 0 0 0 0 0 0 0 0 0 0 0 0 0
0 0 0 0 0 0 0 0 0 0 0 0 0 0 0 0 0 0 0 0 0 0 0 0 0 0 0 0 0 0 0 0 0 0 0 0 0 0 0 0 0 0 0 0
0 0 0 0 0 0 0 0 0 0 0 0 0 0 0 0 0 0 0 0 0 0 0 0 0 0 0 0 0 0 0 0 0 0 0 0 0 0 0 0 0 0 0 0
0 0 0 0 0 0 0 0 0 0 0 0 0 0 0 0 0 0 0 0 0 0 0 0 0 0 0 0 0 0 0 0 0 0 0 0 0 0 0 0 0 0 0 0
0 0 0 0 0 0 0 0 0 0 0 0 0 0 0 0 0 0 0 0 0 0 0 0 0 0 0 0 0 0 0 0 0 0 0 0 0 0 0 0 0 0 0 0
0 0 0 0 0 0 0 0 0 0 0 0 0 0 0 0 0 0 0 0 0 0 0 0 0 0 0 0 0 0 0 0 0 0 0 0 0 0 0 0 0 0 0 0
0 0 0 0 0 0 0 0 0 0 0 0 0 0 0 0 0 0 0 0 0 0 0 0 0 0 0 0 0 0 0 0 0 0 0 0 0 0 0 0 0 0 0 0
0 0 0 0 0 0 0 0 0 0 0 0 0 0 0 0 0 0 0 0 0 0 0 0 0 0 0 0 0 0 0 0 0 0 0 0 0 0 0 0 0 0 0 0
0 0 0 0 0 0 0 0 0 0 0 0 0 0 0 0 0 0 0 0 0 0 0 0 0 0 0 0 0 0 0 0 0 0 0 0 0 0 0 0 0 0 0 0
0 0 0 0 0 0 0 0 0 0 0 0 0 0 0 0 0 0 0 0 0 0 0 0 0 0 0 0 0 0 0 0 0 0 0 0 0 0 0 0 0 0 0 0
0 0 0 0 0 0 0 0 0 0 0 0 0 0 0 0 0 0 0 0 0 0 0 0 0 0 0 0 0 0 0 0 0 0 0 0 0 0 0 0 0 0 0 0
0 0 0 0 0 0 0 0 0 0 0 0 0 0 0 0 0 0 0 0 0 0 0 0 0 0 0 0 0 0 0 0 0 0 0 0 0 0 0 0 0 0 0 0
0 0 0 0 0 0 0 0 0 0 0 0 0 0 0 0 0 0 0 0 0 0 0 0 0 0 0 0 0 0 0 0 0 0 0 0 0 0 0 0 0 0 0 0
0 0 0 0 0 0 0 0 0 0 0 0 0 0 0 0 0 0 0 0 0 0 0 0 0 0 0 0 0 0 0 0 0 0 0 0 0 0 0 0 0 0 0 0
0 0 0 0 0 0 0 0 0 0 0 0 0 0 0 0 0 0 0 0 0 0 0 0 0 0 0 0 0 0 0 0 0 0 0 0 0 0 0 0 0 0 0 0
0 0 0 0 0 0 0 0 0 0 0 0 0 0 0 0 0 0 0 0 0 0 0 0 0 0 0 0 0 0 0 0 0 0 0 0 0 0 0 0 0 0 0 0
0 0 0 0 0 0 0 0 0 0 0 0 0 0 0 0 0 0 0 0 0 0 0 0 0 0 0 0 0 0 0 0 0 0 0 0 0 0 0 0 0 0 0 0
0 0 0 0 0 0 0 0 0 0 0 0 0 0 0 0 0 0 0 0 0 0 0 0 0 0 0 0 0 0 0 0 0 0 0 0 0 0 0 0 0 0 0 0
0 0 0 0 0 0 0 0 0 0 0 0 0 0 0 0 0 0 0 0 0 0 0 0 0 0 0 0 0 0 0 0 0 0 0 0 0 0 0 0 0 0 0 0
0 0 0 0 0 0 0 0 0 0 0 0 0 0 0 0 0 0 0 0 0 0 0 0 0 0 0 0 0 0 0 0 0 0 0 0 0 0 0 0 0 0 0 0
Height
5719 5721 5721 5720 5720 5720 5720 5720 5721 5721 5720 5721 5721 5721 5721 5719 5718 5717 5716 5714 5712 5710 5707 5705 5701 5698 5695 5692 5688 5684 5681 5677 5674 5671 5669 5667 5666 5665 5664 5663 5662 5663 5664 5666
5714 5714 5714 5714 5714 5714 5714 5714 5714 5714 5713 5713 5713 5714 5713 5712 5711 5709 5708 5705 5703 5701 5698 5695 5692 5688 5684 5680 5676 5672 5667 5663 5658 5655 5652 5650 5649 5648 5647 5645 5644 5644 5645 5647
5706 5708 5707 5707 5707 5707 5707 5707 5707 5707 5706 5705 5705 5707 5706 5705 5703 5701 5699 5697 5694 5691 5689 5686 5682 5678 5673 5669 5664 5659 5654 5649 5644 5640 5636 5634 5633 5632 5630 5628 5627 5627 5627 5629
5699 5700 5700 5700 5700 5699 5700 5700 5699 5699 5698 5698 5698 5696 5699 5697 5695 5693 5691 5688 5685 5682 5679 5676 5672 5667 5662 5657 5652 5646 5641 5636 5631 5626 5622 5619 5617 5616 5613 5612 5611 5612 5612 5613
5691 5692 5692 5692 5693 5692 5692 5692 5691 5690 5689 5690 5690 5688 5690 5688 5686 5684 5682 5679 5676 5673 5669 5665 5661 5656 5651 5645 5640 5634 5628 5623 5618 5613 5608 5605 5602 5600 5598 5596 5596 5596 5596 5598
5683 5683 5684 5684 5684 5684 5683 5684 5683 5681 5681 5681 5682 5680 5679 5679 5677 5675 5673 5670 5666 5663 5659 5655 5650 5645 5639 5634 5628 5622 5617 5611 5605 5600 5596 5591 5588 5586 5583 5581 5581 5581 5581 5583
5674 5675 5675 5675 5676 5676 5675 5675 5674 5672 5671 5672 5672 5670 5671 5669 5667 5665 5663 5660 5656 5653 5649 5645 5640 5634 5629 5623 5616 5611 5605 5599 5592 5587 5583 5579 5575 5573 5570 5568 5567 5567 5567 5569
5663 5665 5667 5666 5667 5667 5666 5666 5666 5664 5662 5661 5661 5660 5662 5660 5657 5655 5652 5649 5646 5642 5638 5634 5629 5623 5618 5611 5605 5599 5593 5587 5581 5576 5571 5567 5563 5560 5557 5555 5553 5553 5553 5555
5652 5654 5656 5656 5656 5657 5656 5657 5657 5655 5652 5651 5651 5652 5651 5650 5647 5645 5642 5638 5635 5631 5627 5623 5618 5612 5606 5600 5594 5587 5581 5575 5570 5564 5560 5556 5552 5548 5544 5542 5540 5540 5540 5541
5641 5642 5644 5645 5646 5646 5647 5646 5646 5644 5642 5641 5641 5642 5641 5639 5637 5635 5631 5628 5624 5621 5616 5612 5606 5601 5595 5589 5582 5576 5570 5565 5559 5554 5549 5544 5540 5537 5533 5530 5528 5527 5527 5527
5630 5631 5632 5633 5635 5636 5637 5637 5635 5634 5633 5632 5630 5634 5631 5629 5626 5623 5620 5617 5613 5609 5605 5600 5595 5590 5584 5577 5571 5565 5560 5554 5549 5544 5539 5534 5530 5526 5522 5519 5516 5515 5514 5513
5619 5619 5620 5622 5624 5624 5625 5626 5625 5625 5623 5621 5620 5625 5621 5619 5615 5612 5609 5606 5602 5598 5594 5589 5584 5578 5572 5566 5560 5554 5549 5543 5538 5533 5528 5524 5519 5515 5511 5508 5504 5501 5500 5498
5607 5608 5609 5610 5613 5613 5613 5614 5614 5613 5611 5610 5610 5615 5611 5608 5605 5602 5599 5595 5591 5587 5583 5578 5572 5567 5561 5555 5549 5543 5538 5532 5527 5521 5516 5512 5507 5503 5499 5495 5491 5488 5486 5484
5594 5596 5598 5600 5600 5600 5601 5603 5602 5600 5599 5599 5601 5602 5602 5598 5594 5591 5588 5585 5581 5576 5571 5566 5561 5555 5549 5543 5537 5531 5526 5520 5515 5509 5504 5500 5495 5491 5486 5482 5478 5475 5472 5470
5581 5583 5586 5587 5588 5588 5589 5591 5590 5589 5589 5589 5590 5590 5591 5587 5583 5580 5576 5573 5569 5565 5560 5555 5549 5544 5538 5531 5526 5520 5514 5509 5503 5498 5494 5489 5484 5479 5474 5470 5467 5463 5460 5458
5569 5571 5573 5575 5577 5576 5576 5578 5579 5579 5578 5577 5577 5579 5580 5575 5571 5568 5565 5561 5557 5553 5548 5543 5538 5532 5526 5520 5514 5509 5503 5498 5492 5488 5483 5478 5473 5469 5464 5460 5456 5453 5449 5447
5558 5559 5560 5562 5564 5562 5565 5570 5569 5568 5568 5567 5565 5568 5566 5563 5560 5557 5554 5550 5545 5541 5536 5531 5526 5520 5514 5508 5502 5497 5492 5487 5481 5476 5471 5466 5462 5458 5453 5449 5445 5442 5440 5438
5547 5548 5547 5548 5550 5550 5558 5559 5558 5556 5557 5556 5555 5555 5554 5551 5548 5545 5542 5537 5533 5529 5525 5520 5514 5509 5503 5497 5491 5486 5481 5476 5471 5466 5461 5456 5451 5447 5443 5439 5435 5433 5431 5430
5536 5537 5536 5537 5536 5538 5545 5548 5546 5544 5545 5545 5543 5543 5541 5538 5536 5535 5530 5526 5521 5517 5513 5508 5503 5498 5492 5486 5481 5475 5470 5465 5461 5456 5451 5447 5442 5438 5434 5430 5427 5424 5423 5422
5524 5525 5526 5526 5525 5527 5535 5536 5534 5533 5533 5535 5531 5530 5528 5526 5524 5524 5519 5514 5510 5506 5502 5497 5492 5487 5481 5476 5470 5465 5460 5456 5451 5447 5442 5438 5433 5430 5426 5422 5419 5416 5415 5414
5514 5514 5515 5515 5514 5516 5523 5523 5522 5522 5523 5521 5520 5518 5516 5514 5512 5510 5507 5503 5499 5495 5491 5486 5481 5476 5471 5466 5460 5456 5451 5446 5442 5438 5434 5430 5426 5422 5418 5415 5412 5409 5408 5408
5502 5503 5504 5504 5504 5509 5511 5511 5511 5510 5509 5508 5507 5506 5504 5503 5500 5498 5495 5491 5488 5484 5480 5475 5471 5466 5461 5455 5451 5446 5442 5438 5434 5430 5426 5422 5419 5415 5412 5408 5406 5404 5402 5402
5491 5493 5493 5494 5497 5498 5498 5498 5498 5498 5497 5496 5495 5495 5493 5491 5489 5487 5484 5481 5477 5473 5469 5465 5461 5456 5451 5446 5442 5438 5435 5431 5427 5423 5419 5415 5412 5409 5405 5403 5401 5399 5398 5398
5481 5482 5481 5483 5486 5486 5485 5485 5485 5485 5485 5485 5484 5483 5481 5479 5477 5475 5473 5470 5466 5463 5459 5455 5451 5446 5442 5438 5434 5430 5426 5423 5420 5416 5413 5409 5406 5403 5400 5397 5396 5395 5394 5394
5472 5471 5471 5472 5474 5473 5474 5474 5474 5474 5474 5473 5473 5472 5470 5468 5466 5464 5461 5458 5455 5452 5449 5445 5441 5437 5433 5430 5426 5423 5419 5416 5413 5410 5407 5403 5400 5397 5394 5392 5391 5390 5390 5390
5462 5461 5461 5461 5463 5462 5463 5463 5463 5463 5463 5462 5461 5460 5459 5457 5455 5453 5450 5447 5445 5442 5439 5435 5432 5429 5425 5422 5419 5416 5412 5409 5406 5404 5401 5398 5395 5392 5390 5388 5387 5386 5386 5387
Wind_Speed
24 24 23 23 23 24 24 25 24 25 26 26 27 27 27 29 31 32 33 34 35 37 38 39 41 42 44 46 47 49 50 51 53 54 55 56 57 58 59 60 62 63 64 66
26 26 26 26 26 26 26 27 27 27 28 29 29 29 29 30 32 33 34 36 37 38 39 40 42 44 46 47 48 49 50 51 52 53 54 54 54 56 57 58 59 60 62 63
28 28 27 28 28 28 28 29 29 30 30 31 32 31 30 31 33 34 35 36 38 39 40 41 43 45 46 47 48 49 50 51 51 52 52 51 52 54 55 56 56 57 59 59
30 29 29 29 29 30 30 30 31 31 32 32 33 35 31 32 33 35 36 37 38 39 41 43 44 45 47 48 49 50 51 51 51 50 50 51 51 52 53 54 53 55 56 56
32 31 31 31 31 32 32 32 32 33 34 34 34 37 35 35 35 36 37 38 39 40 42 43 45 46 47 48 49 50 50 50 49 49 50 50 49 50 50 52 52 53 53 54
34 34 34 34 33 34 34 34 35 36 36 37 35 37 38 37 37 38 39 39 41 42 43 44 46 47 47 48 49 49 48 49 49 49 49 48 48 48 49 50 50 51 51 52
36 36 36 36 36 36 36 36 37 39 39 39 38 39 39 39 39 39 40 41 42 43 44 45 46 47 48 49 49 49 48 48 48 48 46 46 47 48 48 48 48 49 49 50
39 39 38 38 38 38 38 38 39 41 42 42 41 41 40 40 40 41 42 43 44 45 46 47 47 48 49 50 49 48 49 48 48 47 46 47 47 48 48 47 47 47 48 49
42 43 41 40 40 40 40 39 39 41 43 44 43 43 42 42 42 42 44 45 46 47 48 48 49 49 50 50 49 49 48 47 47 46 46 47 47 47 47 47 47 47 48 48
43 44 44 43 42 42 42 41 41 42 44 45 45 44 43 44 43 44 45 46 47 48 49 50 50 50 50 49 48 48 47 47 46 45 46 47 47 46 46 45 44 46 47 49
43 44 45 45 44 43 42 42 43 44 44 46 47 45 44 45 45 46 46 47 48 49 50 50 50 51 51 51 49 47 47 47 47 48 47 47 46 44 45 45 46 46 46 48
43 44 45 45 45 44 44 43 43 44 45 46 47 45 44 45 46 46 47 48 49 50 51 51 51 51 52 51 50 49 48 48 48 48 48 47 47 47 47 47 48 48 47 46
43 44 44 45 45 44 43 42 43 44 45 46 46 45 44 45 45 46 47 48 49 50 51 51 51 52 52 51 50 48 48 48 49 48 47 47 47 47 47 46 47 46 46 45
44 45 45 45 45 44 43 42 42 43 45 46 46 45 43 44 45 46 47 48 49 51 51 52 52 52 52 51 50 49 48 49 49 48 47 46 46 46 46 45 44 44 43 43
47 47 46 45 45 46 46 44 44 45 45 46 45 44 43 44 45 47 48 49 50 51 51 52 52 52 52 51 50 49 48 47 47 46 45 44 43 43 43 42 41 42 42 41
47 48 48 47 46 47 47 46 46 45 45 46 46 45 43 44 46 47 49 50 51 51 51 52 52 52 51 51 50 48 46 45 45 45 44 43 42 42 42 41 40 40 39 38
46 47 48 48 47 48 48 44 45 46 45 45 46 45 44 45 46 47 49 50 50 51 51 51 51 51 50 50 49 47 45 44 43 43 42 41 41 41 41 39 38 37 36 33
45 45 46 47 46 48 46 43 44 45 44 45 45 44 45 46 47 48 49 49 50 50 50 50 50 49 49 48 47 46 45 44 43 41 39 39 39 39 38 36 34 34 33 31
43 43 44 45 46 47 43 41 42 44 44 43 44 45 45 46 47 47 48 49 49 49 48 49 48 48 48 47 46 44 43 43 42 40 39 38 37 36 35 34 33 32 31 29
42 42 42 43 45 46 42 41 41 43 44 41 43 44 45 46 47 46 47 48 48 48 47 47 47 47 47 46 44 43 42 41 40 39 38 37 35 34 33 32 31 28 27 26
41 43 44 44 46 46 43 43 43 44 44 44 44 45 45 45 46 46 46 47 47 47 47 46 47 46 45 44 42 40 39 38 36 36 35 34 33 31 30 29 27 26 25 24
41 42 44 44 45 44 43 44 44 45 45 45 46 45 45 45 45 45 46 46 46 46 45 45 45 44 43 41 39 37 35 34 33 33 32 32 31 30 29 27 24 22 22 22
40 41 42 43 43 42 42 44 44 44 44 45 45 44 44 44 45 46 46 46 45 45 45 44 44 43 41 39 37 35 33 32 31 31 30 29 29 28 27 26 23 20 19 18
37 38 39 41 40 40 41 42 42 42 43 43 43 43 43 44 45 45 45 44 44 43 43 42 42 40 38 36 35 33 31 30 30 28 28 27 27 26 24 23 21 19 17 16
37 38 39 39 38 40 41 41 41 41 42 42 42 42 43 44 44 44 42 42 41 40 41 40 39 37 35 33 32 31 30 28 28 27 25 24 25 24 23 21 19 17 16 14
36 38 39 39 38 40 40 41 41 41 42 42 42 42 43 43 43 42 41 40 40 39 39 38 37 35 33 32 30 29 28 27 26 25 23 22 22 21 19 17 15 15 15 15
Wind_Direction
263 265 267 268 269 269 270 272 273 274 276 277 278 280 282 284 286 287 288 289 290 291 291 291 292 291 291 290 290 289 287 287 284 281 279 277 275 273 273 271 268 266 265 262
263 265 267 268 269 269 270 272 274 275 277 278 279 281 283 285 287 288 289 291 291 292 292 293 294 294 293 292 291 291 290 290 287 285 283 280 277 276 275 273 271 267 265 263
265 266 267 269 269 270 271 273 275 277 277 281 282 282 283 285 287 289 291 292 293 293 293 294 296 296 296 295 294 293 292 291 290 288 285 282 281 279 276 273 271 268 266 263
264 266 267 268 270 271 273 275 277 278 280 281 284 285 284 286 288 290 291 293 294 294 295 296 297 298 298 297 297 295 294 293 291 289 287 285 283 280 276 273 272 269 266 264
264 265 267 268 270 272 274 275 277 279 281 282 284 286 287 289 290 291 292 294 295 295 297 298 299 300 299 299 298 298 296 294 292 290 290 286 284 282 279 276 273 270 267 265
264 265 266 268 270 273 274 275 278 279 281 282 285 286 289 291 292 293 293 294 296 296 298 300 301 302 301 300 300 299 298 296 293 292 290 288 285 283 281 279 275 272 268 265
264 265 267 268 270 271 273 276 279 280 281 283 286 287 290 292 293 293 294 295 296 297 299 300 301 302 302 302 301 300 299 297 296 294 291 289 287 286 284 281 277 274 270 265
265 265 265 268 270 271 272 275 278 281 283 285 286 288 290 292 293 294 295 296 297 298 299 301 302 302 303 304 302 301 300 298 297 295 293 291 290 288 286 283 279 276 272 267
265 266 266 267 269 270 272 274 277 279 281 282 284 287 289 291 293 295 295 296 298 299 300 301 302 304 305 304 303 302 301 299 298 297 295 292 290 289 287 284 280 277 273 269
265 266 266 267 268 269 272 274 276 278 280 282 284 287 289 291 293 295 295 296 297 299 300 302 303 305 306 305 303 302 300 300 299 300 298 295 292 290 288 284 281 279 275 271
264 266 267 267 268 270 271 273 275 277 278 281 284 286 289 291 293 294 295 296 298 300 301 302 304 305 306 305 304 302 300 298 297 298 297 294 292 291 290 286 284 282 278 273
263 265 266 268 268 269 270 272 274 276 278 279 282 285 288 290 292 293 294 296 298 299 301 302 303 305 306 305 303 301 300 299 298 299 297 295 293 291 290 289 286 283 279 274
263 264 266 267 268 269 271 272 273 275 276 278 281 285 287 288 290 291 292 295 297 299 301 301 303 304 305 305 303 301 300 299 299 299 298 296 295 294 293 289 286 283 279 276
261 262 264 266 269 269 269 270 271 273 275 278 281 284 285 287 288 289 292 294 296 298 300 301 302 303 304 304 302 301 300 300 299 299 299 297 296 295 294 291 289 286 282 277
259 260 261 262 264 267 269 269 270 273 276 278 281 283 285 285 287 289 291 294 296 297 299 300 301 302 303 303 301 300 300 300 299 299 299 298 296 297 296 293 289 286 283 279
258 260 261 261 262 264 267 269 271 272 275 278 280 282 285 285 286 288 290 293 295 297 298 300 301 302 302 303 301 300 299 300 299 299 298 296 295 295 296 293 289 286 283 280
258 261 262 263 264 265 266 269 271 273 275 277 279 283 283 284 286 289 291 293 296 297 298 300 301 302 302 303 302 300 299 300 300 300 299 297 296 295 294 292 289 286 283 280
260 261 263 264 264 264 267 267 269 272 274 276 278 280 282 284 287 290 291 293 295 297 298 300 301 302 303 303 302 301 300 300 301 301 300 299 296 296 295 293 290 285 280 277
260 261 263 264 266 267 267 269 271 273 274 276 279 280 281 284 286 289 291 293 295 297 299 300 301 302 303 303 302 301 301 301 302 301 300 300 300 297 296 295 290 286 281 275
259 259 261 264 265 268 269 270 272 274 275 277 280 282 283 286 288 290 291 294 295 297 298 299 301 302 302 303 302 302 302 302 301 301 300 300 300 299 298 295 291 286 282 276
258 259 260 263 266 268 270 272 273 275 278 279 281 282 284 287 289 291 292 294 295 296 298 299 300 301 302 301 301 302 302 302 301 301 300 300 300 301 300 297 293 286 280 275
259 260 260 263 266 270 271 271 272 274 276 279 281 284 286 287 289 291 292 294 295 296 297 299 300 301 301 301 300 302 302 302 302 302 301 300 299 299 299 297 293 285 279 273
260 263 264 265 268 270 271 271 272 274 276 278 280 283 285 287 288 290 292 293 294 296 297 298 300 300 300 300 300 301 302 302 303 303 303 301 298 297 298 295 290 286 281 273
260 263 266 268 270 271 271 271 272 273 276 278 280 283 285 287 289 291 292 292 293 294 296 298 299 300 299 298 300 302 301 301 302 303 303 300 298 297 297 295 290 284 277 270
260 263 266 269 270 270 271 271 273 275 277 278 281 283 285 287 289 290 290 290 291 293 295 297 299 299 297 297 299 302 303 301 301 302 302 299 297 297 296 294 290 282 272 266
260 263 266 268 269 270 272 272 273 274 276 277 279 281 283 285 287 289 289 288 289 291 293 295 297 296 296 296 299 300 301 302 302 301 299 298 299 300 299 294 286 278 267 258